“In life, you're either a passenger or a pilot. It’s your choice.”

WELCOME TO YOUR AVIATION DREAM!

What's new Up There Icon

WHAT’S NEW HERE?

4000+ aviation terms, acronyms and definitions!
Make your study a little easier with the aviation glossaries that gather over 4000 terms and acronyms extracted from weather, communications, technical and more general topics…
Partnership Icon

PARTNESHIP ANNOUNCEMENT

I am proud to announce a partnership with nizul Logo, study partner of every pilot who wants to consolidate their ground school knowledge and master their written examination.

Try Me Icon

ALL YOURS FOR 30 MINUTES!

Not sure you’d get along with a freelance instructor? How about giving it a try with a 30 minute flight?
My treat! All free.

Resources Tool Box

STUDENT RESOURCES

As a registered student training with me, you get access to a whole lot of files, tools, documents, aviation glossaries, videos, quizzes, sample tests, etc… 

Control Tower Icon

QUESTIONS? CHECK F.A.Q.

In aviation, the only stupid question is the one you didn’t ask. And there is a big chance yours has already been answered in the FAQ. Check it out!

Brain Icon

ARE YOU WIRED FOR FLYING?

Flying an aircraft is usually not the most difficult part of the “problem” and it takes a certain mindset to deal with the other aspects of a flight. Find out wether…

THEY DID IT!

Meet those who refused to be the passengers of their lives, and learn about their experience.

QUICK FACTS

Aviation is a world of serious numbers.
Here are my own, and they count as much as the other ones.

0
YEARS OF
WISDOM
0
YEARS OF
SKY FUN
0
AMAZING
STUDENTS
0
HOURS OF
PURE EXCITEMENT

Grow some wings,
Come fly with me!

Vancouver Island Weather

METARs and TAFs.
VICTORIA INTL (CYYJ)
METAR:

CYYJ 070500Z 27007G16KT 20SM FEW025 09/02 A3003 RMK SC1 SLP170

TAF:

TAF CYYJ 070538Z 0706/0806 24010G20KT P6SM FEW030 TEMPO 0706/0708 BKN030 FM070800 25008KT P6SM SCT030 BKN080 TEMPO 0709/0722 P6SM -SHRA BKN030 FM072200 22006KT P6SM FEW030 SCT050 BECMG 0801/0803 25012KT RMK NXT FCST BY 071200Z

NANAIMO (CYCD)
METAR:

CYCD 070400Z 24007G20KT 190V260 20SM FEW040 11/00 A3000 RMK SC2 LAST STFD OBS/NEXT 071300Z SLP161

TAF:

TAF AMD TAF AMD CYCD 062025Z 0620/0704 18012G22KT P6SM BKN080 OVC200 FM062200 18012G22KT P6SM BKN030 OVC060 TEMPO 0622/0701 6SM -SHRA FM070100 24008KT P6SM SCT030 OVC080 RMK NXT FCST BY 070000Z

LONG BEACH (CYAZ)
METAR:

CYAZ 070100Z 30009KT 15SM SCT014TCU BKN048 BKN074 09/08 A3000 RMK TCU4SC2AC1 LAST STFD OBS/NXT 071300UTC SLP162

TAF:

TAF AMD TAF AMD CYAZ 062313Z 0623/0701 28010G20KT P6SM SCT008 BKN025 OVC030 TEMPO 0623/0701 5SM -SHRA BR BKN008 OVC015 RMK NXT FCST WILL BE ISSUED AT 071445Z

For more in-depth weather information, please, check Collaborative Flight Planning Service

For all Runway conditions in CYYJ, please check

IIDS Web View

Windy’s Forecast & Observations